This is the latest recevied weather packets stored in our database for station/object KE6YLF. If no packets are shown the sender has not sent any weather packets the latest 10 day(s).
| Time | Temp. | Humidity | Pressure | Rain* | Wind** | Luminosity | Snow |
|---|---|---|---|---|---|---|---|
| 1778359133 | 37.78° C | 14% | 1073.5 hPa | 0 mm | - | - | - |
| 1778358829 | 38.33° C | 14% | 1073.6 hPa | 0 mm | - | - | - |
| 1778358527 | 38.89° C | 14% | 1073.6 hPa | 0 mm | - | - | - |
| 1778358222 | 39.44° C | 14% | 1073.8 hPa | 0 mm | - | - | - |
| 1778357917 | 37.78° C | 15% | 1073.6 hPa | 0 mm | - | - | - |
| 1778357613 | 37.22° C | 15% | 1073.9 hPa | 0 mm | - | - | - |
| 1778357310 | 37.78° C | 15% | 1073.7 hPa | 0 mm | - | - | - |
| 1778357005 | 37.22° C | 15% | 1074.1 hPa | 0 mm | - | - | - |
| 1778356702 | 37.78° C | 14% | 1074.2 hPa | 0 mm | - | - | - |
| 1778356397 | 37.78° C | 14% | 1074 hPa | 0 mm | - | - | - |
| 1778356096 | 37.78° C | 14% | 1074 hPa | 0 mm | - | - | - |
| 1778355792 | 37.22° C | 14% | 1074.3 hPa | 0 mm | - | - | - |
| 1778355489 | 36.67° C | 15% | 1074.2 hPa | 0 mm | - | - | - |
| 1778355189 | 36.67° C | 15% | 1074.2 hPa | 0 mm | - | - | - |
| 1778354885 | 37.78° C | 14% | 1074.3 hPa | 0 mm | - | - | - |
| 1778354581 | 36.67° C | 15% | 1074.3 hPa | 0 mm | - | - | - |
| 1778354276 | 36.67° C | 15% | 1074.5 hPa | 0 mm | - | - | - |
| 1778353973 | 36.67° C | 15% | 1074.4 hPa | 0 mm | - | - | - |
| 1778353669 | 37.22° C | 15% | 1074.5 hPa | 0 mm | - | - | - |
| 1778353366 | 37.22° C | 15% | 1074.4 hPa | 0 mm | - | - | - |
| 1778353063 | 36.11° C | 16% | 1074.6 hPa | 0 mm | - | - | - |
| 1778352760 | 37.78° C | 15% | 1074.5 hPa | 0 mm | - | - | - |
| 1778352457 | 36.67° C | 15% | 1074.7 hPa | 0 mm | - | - | - |
| 1778352154 | 36.67° C | 15% | 1074.7 hPa | 0 mm | - | - | - |
| 1778351851 | 36.67° C | 15% | 1074.7 hPa | 0 mm | - | - | - |
* Rain latest hour (hover to see other rain measurements)
** Current wind speed in m/s (hover to see current wind gust speed)